DELTA 1 DEB

Satellite information

Favourite Embed

Satellite Type and Status

DEBRISIN ORBIT

Key statistics

Satellite DELTA 1 DEB at a glance.

Uptime

17450

Days in orbit

Revolutions

≈ 14.4

Per day

Orbit

SSO

Sun Synchronous Orbit

Inclination

98.6

Latest

Satellite identification and parameters

Extended collection of information and parameters for DELTA 1 DEB.

Object identification

Identified? True

Debris? True

Object name: DELTA 1 DEB

International designator: 1978-026D

Object number (NORAD): 12164

Object ID (CCSDS): 12164

Country: UNITED STATES OF AMERICA (US)

Current information (Y/N): Y

RCS size: SMALL

Orbital parameters

Period: 99.898 minutes

Inclination: 98.629 deg

SMA: 7131.805 km

Apoapsis: 795.183 km

Periapsis: 712.156 km

RAAN: 15.2733 deg

Eccentricy: 0.00582091

Argument of periapsis: 298.0509 deg

Mean anomaly: 121.9662 deg

Mean motion: 14.41463385 rev/day

Mean motion (dot): 0.00002836 rev/day2

B* drag term: 0.00087048034 1/REarth

Two-line elements (TLE)

Creation date: Dec. 12, 2025, 10:14 a.m.

Reference frame: TEME

Reference center: EARTH

Epoch: Dec. 12, 2025, 7:34 a.m. UTC

TLE line 0: 0 DELTA 1 DEB

TLE line 1: 1 12164U 78026D 25346.31591613 .00002836 00000-0 87048-3 0 9995

TLE line 2: 2 12164 98.6290 15.2733 0058209 298.0509 121.9662 14.41463385480185

Live tracking on map

Real-time ground track for satellite DELTA 1 DEB.

In-orbit conjunctions

A list of the most updated potential collisions computed for object DELTA 1 DEB.

Target Orbit TCA Probability of collision Miss distance Type
FENGYUN 1C DEB SSO 2025-02-22 12:27:43 0.0002356604 38.0 (m) DEBRIS
TITAN 3C TRANSTAGE DEB LEO 2024-07-27 17:37:50 0.000110546 76.0 (m) DEBRIS
FENGYUN 1C DEB SSO 2024-06-27 12:39:47 0.0001092166 208.0 (m) DEBRIS

Associated space launch

Earth observation satellite

DELTA 1 DEB was lifted into orbit during the mission ‘Delta 2910 | Landsat 3’, on board a Delta 2910 space rocket.

The launch took place on March 5, 1978, 5:54 p.m. from Space Launch Complex 2W.

For more information about the launch, click the button.

Launch to space Delta 2910 | Landsat 3
Delta 2910 | Landsat 3

Agency: N/A

Status: Launch Successful

Launch date: March 5, 1978, 5:54 p.m. UTC

Rocket: Delta 2910

Launch pad: Space Launch Complex 2W

Location: Vandenberg SFB, CA, USA

...

Latest news about this satellite

There are no fresh news available about this satellite. Check back as we update our databases every day.


Newsletter sign-up

Weekly statistics, charts and insights to help you stay on top of the space industry.